Regional Weather Roundup
Issued by NWS

Home | Current Version | Previous Version | Text Only | Print | Product List | Glossary Off
Versions: 1 2 3 4 5 6 7 8 9 10 11 12 13 14 15 16 17 18 19 20 21 22 23 24 25 26 27

000
ASUS45 KCYS 300310
RWRWY

WYOMING REGIONAL WEATHER ROUNDUP
NATIONAL WEATHER SERVICE CHEYENNE WY
900 PM MDT MON AUG 29 2016

NOTE:  "FAIR" INDICATES FEW OR NO CLOUDS BELOW 12,000 FEET
WITH NO SIGNIFICANT WEATHER AND/OR OBSTRUCTIONS TO VISIBILITY.

WYZ001-300400-
YELLOWSTONE NATIONAL PARK

CITY           SKY/WX    TMP DP  RH WIND       PRES   REMARKS
LK YELLOWSTONE   N/A     56  33  42 CALM      30.45R
W YELLOWSTONE  NOT AVBL

$$
WYZ002>013-054>058-071-098>099-300400-
NORTHERN WYOMING

CITY           SKY/WX    TMP DP  RH WIND       PRES   REMARKS
JACKSON        FAIR      73  21  14 W8G18     30.31R
CODY           FAIR      73  37  27 CALM      30.23F
GREYBULL       FAIR      76  44  32 SE3       30.15R
WORLAND        FAIR      77  33  20 SE13      30.17R
SHERIDAN       FAIR      73  47  39 VRB3      30.20R
BUFFALO        FAIR      75  41  29 SE3       30.28S
GILLETTE       FAIR      73  49  42 S10       30.25R
HULETT         FAIR      70  50  49 E10G16    30.28R
NEWCASTLE      FAIR      70  50  49 E13G21    30.28R

$$
WYZ014>020-022>026-101>103-300400-
CENTRAL WYOMING

CITY           SKY/WX    TMP DP  RH WIND       PRES   REMARKS
BIG PINEY      FAIR      68  27  21 S9        30.37R
PINEDALE       FAIR      64  30  27 SE5       30.38S
DUBOIS         FAIR      61  28  29 W5        30.39R
LANDER         FAIR      74  33  22 SW12      30.29R
RIVERTON       FAIR      73  31  21 NE7       30.27R
CASPER         FAIR      69  42  37 SE6       30.31R
DOUGLAS        FAIR      69  48  47 SE9       30.31R

$$
WYZ021-027>030-104>119-300400-
SOUTHERN WYOMING

CITY           SKY/WX    TMP DP  RH WIND       PRES   REMARKS
EVANSTON       FAIR      69  21  16 E6        30.35R
FORT BRIDGER   FAIR      75  19  12 E5        30.37S
ROCK SPRINGS   FAIR      70  28  21 SE14      30.35R
DIXON          FAIR      61  35  37 NE7       30.37R
RAWLINS        FAIR      66  31  27 E10       30.40R
SARATOGA       FAIR      59  32  36 S7        30.41R
LARAMIE        FAIR      56  40  55 SE9       30.45R
CHEYENNE       FAIR      63  44  50 S7        30.39R
TORRINGTON     FAIR      68  58  70 E6        30.26R
PINE BLUFFS    FAIR      63  50  63 S6        30.34R

$$




USA.gov is the U.S. government's official web portal to all federal, state and local government web resources and services.